Ana Sayfa
METAR-TAF:

METAR-TAF

Havaalanları :

Wings Field

Philadelphia / Blue Bell, Pensilvanya, Amerika Birleşik Devletleri

Enlem: 40-08-15N, Boylam: 075-15-54W, yükseklik: 92 m

Güncel hava durumu gözlemi

Rapor saat 06:15 UTC de 37 dakika önce yapıldı.
Rüzgar batı/kuzeybatıdan 6 kt
Sıcaklık -2°C
Nem 54%
Basınç 1012 hPa
Görüş mesafesi: 16.1 km
Açık gökyüzü

METAR: KLOM 290615Z AUTO 30006KT 10SM CLR M02/M10 A2988 RMK AO2 T10151104

Saat: 01:52 (06:52 UTC)


TAF: eksik

4.000'den fazla havaalanı için hava durumu gözlemleri ve tahminleri (METAR ve TAF raporları).

Kullanılabilir istasyonlar harita üzerinde sarı ve kırmızı noktalarla gösterilir.

İstasyonun adını görmek için fareyi noktanın üzerinde gezdirin.

Sonrasında hava gözlem ve tahminlerini görmek için tıklayın.

Haritayı değiştirmek için: yaklaştırmak için siyah artı işaretli yeşil düğmeye ve uzaklaştırmak için de eksi işaretli düğmeye hızla tıklayın; bitişik haritalar için yeşil okları kullanın.


METAR-TAF: